Вернуться в каталог

HULIANWANG DIGUI-99

АктивенСвязьLEO
NORAD 66415·PAYLOAD·🇨🇳 China

Запущен Nov 10, 2025 с Wenchang Space Launch Site

Loading…

Ближайшие Пролёты (ближайшие 24 часа)

TLE

СвежийSource: Space-Track

Эпоха: Sep 14, 2026, 14:03 UTC

1 66415U 25258D   26257.58546576 -.00000079  00000-0  97996-4 0  9993
2 66415  50.0067 334.9397 0000204 109.2307 250.8587 13.29329999 41611

Отслеживайте HULIANWANG DIGUI-99 в реальном времени с AllMySat

Download on the App Store